Location: Marsån
(66.4167°N, 22.2833°E)
Time: 08:43:39
(UTC+00:00)

ASTEX 1 - Pass Details

Date: 24 February 2024
Orbit: 718 x 738 km, 92.7° (Epoch: 21 April)

Event Time Altitude Azimuth Distance (km) Brightness Sun altitude
Rises 19:15:40 0° 8° (N) 3,147 7.0 -23.1°
Reaches altitude 10° 19:17:59 10° 4° (N) 2,224 6.2 -23.3°
Maximum altitude 19:22:47 57° 287° (WNW) 859 4.0 -23.7°
Drops below altitude 10° 19:27:34 10° 210° (SSW) 2,220 5.8 -24.1°
Sets 19:29:53 0° 207° (SSW) 3,141 6.6 -24.3°
